Location: Namasale
(1.5000°N, 32.6167°E)
Time: 18:49:07
(UTC+00:00)

Vanguard 1 Rocket - Pass Details

Date: 24 April 2021
Orbit: 652 x 4224 km, 34.3° (Epoch: 09 May)

Event Time Altitude Azimuth Distance (km) Brightness Sun altitude
Rises 15:19:07 0° 347° (NNW) 3,077 10.5 7.3°
Reaches altitude 10° 15:23:29 10° 27° (NNE) 2,495 9.5 6.2°
Maximum altitude 15:24:55 11° 42° (NE) 2,577 9.5 5.9°
Drops below altitude 10° 15:26:30 10° 56° (ENE) 2,813 9.5 5.5°
Sets 15:32:57 0° 90° (E) 4,589 10.3 3.9°
